Regional Weather Roundup
Issued by NWS

Home | Current Version | Previous Version | Text Only | Print | Product List | Glossary On
Versions: 1 2 3 4 5 6 7 8 9 10 11 12 13 14 15 16 17 18 19 20 21 22 23 24 25 26 27 28 29 30 31 32 33 34 35 36 37 38 39 40 41 42 43 44 45 46 47 48 49 50
000
ASUS43 KBIS 271410
RWRND

NORTH DAKOTA REGIONAL WEATHER ROUNDUP
NATIONAL WEATHER SERVICE BISMARCK ND
900 AM CDT WED AUG 27 2014

NOTE: "FAIR" INDICATES FEW OR NO CLOUDS BELOW 12,000 FEET WITH NO
SIGNIFICANT WEATHER AND/OR OBSTRUCTIONS TO VISIBILITY.


NDZ001>003-009>011-017-271500-
NORTHWEST NORTH DAKOTA

CITY           SKY/WX    TMP DP  RH WIND       PRES   REMARKS
WILLISTON      SUNNY     57  53  86 S7        30.11S
MINOT          SUNNY     59  52  77 S9        30.13S
MINOT AFB      SUNNY     57  57  99 S6        30.13S
$$

NDZ018>021-031>035-040>046-271500-
SOUTHWEST NORTH DAKOTA

CITY           SKY/WX    TMP DP  RH WIND       PRES   REMARKS
BISMARCK       FOG       52  52 100 CALM      30.18R VSB 1/2
DICKINSON      SUNNY     54  52  93 SE5       30.14R
GARRISON         N/A     56  55  97 S5        30.15S
HETTINGER ARPT SUNNY     52  51  97 S3        30.17S
$$

NDZ004>008-012>016-024-026-027-054-271500-
NORTHEAST NORTH DAKOTA

CITY           SKY/WX    TMP DP  RH WIND       PRES   REMARKS
GRAND FORKS    SUNNY     56  54  93 S5        30.18S
GRND FRKS AFB  SUNNY     58  57  96 SW3       30.18S
DEVILS LAKE    SUNNY     57  52  82 S7        30.16S
$$

NDZ022-023-025-028>030-036>039-047>053-271500-
SOUTHEAST NORTH DAKOTA

CITY           SKY/WX    TMP DP  RH WIND       PRES   REMARKS
FARGO          MOSUNNY   58  57  97 CALM      30.19S
JAMESTOWN      FOG       54  54 100 CALM      30.18S VSB 1/2
$$



USA.gov is the U.S. government's official web portal to all federal, state and local government web resources and services.